Date String (YYYY-MM-DD hh:mm:ss) UTC,Instrument flags,Ambient pressure (hPa),Sample flow (lpm),Bypass flow (lpm),Sample temperature (°C),Ambient temperature (°C),ASC tube jacket temperature (°C),LED temperature (°C),Box temperature (°C),Sample RH (%),Span deviation,Mass concentration (μg/m³),Mass concentration (μg/m³),Mass concentration (μg/m³)
DateTimeUTC,F1_M11,P_M11,Q1_M11,Q2_M11,T1_M11,T2_M11,T3_M11,T4_M11,T5_M11,U1_M11,ZSPAN_M11,X0_M11,X2_M11,X1_M11
2022-09-06 12:00:00,,0829.8,4.98,0.00,30.2,28.8,00.0,38.9,32.0,15.8,0000.0,0015.45,0007.90,0006.83
2022-09-06 12:01:00,,0829.8,5.01,0.00,30.2,28.9,00.0,38.9,32.0,15.7,0000.0,0015.57,0007.89,0006.86
2022-09-06 12:02:00,,0829.8,5.01,0.00,30.2,29.0,00.0,39.0,32.0,15.5,0000.0,0015.51,0007.94,0006.94
2022-09-06 12:03:00,,0829.8,4.99,0.00,30.2,29.0,00.0,39.0,32.0,15.5,0000.0,0015.70,0008.01,0007.01
2022-09-06 12:04:00,,0829.8,5.01,0.00,30.2,29.1,00.0,39.0,32.0,15.4,0000.0,0015.68,0008.14,0007.11
2022-09-06 12:05:00,,0829.8,4.99,0.00,30.2,29.1,00.0,39.0,32.1,15.5,0000.0,0015.48,0008.25,0007.19
2022-09-06 12:06:00,,0829.8,5.01,0.00,30.3,29.2,00.0,39.0,32.1,15.3,0000.0,0015.46,0008.33,0007.29
2022-09-06 12:07:00,,0829.8,4.99,0.00,30.3,29.2,00.0,39.0,32.1,15.3,0000.0,0015.59,0008.48,0007.41
2022-09-06 12:08:00,,0829.8,5.01,0.00,30.3,29.3,00.0,39.1,32.2,14.5,0000.0,0015.87,0008.75,0007.63
2022-09-06 12:09:00,,0829.9,4.99,0.00,30.3,29.3,00.0,39.1,32.2,14.4,0000.0,0016.02,0009.14,0008.03
2022-09-06 12:10:00,,0829.9,5.02,0.00,30.4,29.3,00.0,39.1,32.2,14.5,0000.4,0016.63,0009.49,0008.38
2022-09-06 12:11:00,,0829.9,4.98,0.00,30.4,28.7,00.0,39.1,32.2,14.5,0001.3,0017.40,0009.80,0008.72
2022-09-06 12:12:00,,0829.8,5.01,0.00,30.3,27.0,00.0,39.1,31.9,14.6,0001.6,0018.18,0010.11,0009.02
2022-09-06 12:13:00,,0829.9,4.99,0.00,30.2,26.4,00.0,39.0,31.8,14.6,0001.9,0018.99,0010.35,0009.27
2022-09-06 12:14:00,,0829.8,5.01,0.00,30.1,26.5,00.0,38.9,31.8,14.8,0001.7,0020.08,0010.58,0009.53
2022-09-06 12:15:00,,0829.8,5.00,0.00,30.0,26.9,00.0,38.9,31.6,14.7,0001.6,0020.18,0010.81,0009.77
2022-09-06 12:16:00,,0829.9,5.00,0.00,30.0,27.3,00.0,38.8,31.6,14.6,0001.9,0020.29,0011.05,0010.06
2022-09-06 12:17:00,,0829.9,4.99,0.00,30.0,27.6,00.0,38.8,31.6,14.3,0002.2,0020.58,0011.41,0010.43
2022-09-06 12:18:00,,0829.9,5.00,0.00,29.9,27.9,00.0,38.8,31.7,14.3,0002.2,0020.74,0011.74,0010.80
2022-09-06 12:19:00,,0829.9,5.01,0.00,29.9,28.1,00.0,38.8,31.7,14.3,0002.5,0020.19,0011.95,0011.06
2022-09-06 12:20:00,,0829.9,5.00,0.00,29.9,28.3,00.0,38.8,31.7,14.4,0002.7,0020.52,0012.04,0011.14
2022-09-06 12:21:00,,0829.9,5.00,0.00,29.9,28.4,00.0,38.8,31.7,14.3,0002.3,0020.40,0012.17,0011.27
2022-09-06 12:22:00,,0829.9,5.00,0.00,29.9,28.5,00.0,38.8,31.7,14.2,0002.3,0019.85,0012.33,0011.42
2022-09-06 12:23:00,,0829.9,5.00,0.00,30.0,28.6,00.0,38.8,31.7,14.2,0002.2,0019.10,0012.51,0011.60
2022-09-06 12:24:00,,0830.0,5.00,0.00,30.0,28.7,00.0,38.8,31.8,14.1,0002.4,0018.81,0012.71,0011.78
2022-09-06 12:25:00,,0830.0,5.00,0.00,30.0,28.8,00.0,38.8,31.8,13.8,0002.9,0018.70,0013.00,0012.04
2022-09-06 12:26:00,,0830.0,5.01,0.00,30.0,28.8,00.0,38.8,31.9,13.5,0003.4,0018.92,0013.32,0012.38
2022-09-06 12:27:00,,0830.0,4.99,0.00,30.0,28.9,00.0,38.8,31.9,13.3,0003.3,0019.93,0013.67,0012.76
2022-09-06 12:28:00,,0830.0,4.98,0.00,30.1,28.9,00.0,38.8,31.9,13.3,0003.0,0020.38,0013.97,0013.05
2022-09-06 12:29:00,,0830.1,5.01,0.00,30.1,29.0,00.0,38.8,32.0,13.3,0003.0,0020.55,0014.22,0013.31
2022-09-06 12:30:00,,0830.1,4.99,0.00,30.1,29.0,00.0,38.9,32.0,13.2,0003.0,0020.73,0014.48,0013.55
2022-09-06 12:31:00,,0830.1,5.00,0.00,30.1,29.1,00.0,38.9,32.0,12.8,0002.8,0020.82,0014.82,0013.89
2022-09-06 12:32:00,,0830.1,5.01,0.00,30.2,29.1,00.0,38.9,32.0,12.6,0002.8,0021.11,0015.23,0014.30
2022-09-06 12:33:00,,0830.0,4.98,0.00,30.2,29.2,00.0,38.9,32.1,12.8,0002.8,0021.27,0015.55,0014.68
2022-09-06 12:34:00,,0830.1,5.02,0.00,30.2,29.2,00.0,38.9,32.1,12.6,0002.6,0021.46,0015.89,0015.05
2022-09-06 12:35:00,,0830.1,4.99,0.00,30.2,29.2,00.0,39.0,32.1,12.9,0002.5,0021.49,0016.23,0015.43
2022-09-06 12:36:00,,0830.1,5.00,0.00,30.3,29.2,00.0,39.0,32.1,12.7,0002.2,0021.48,0016.60,0015.82
2022-09-06 12:37:00,,0830.1,5.00,0.00,30.3,29.3,00.0,39.0,32.2,12.8,0002.0,0022.12,0016.84,0016.07
2022-09-06 12:38:00,,0830.1,5.00,0.00,30.3,29.3,00.0,39.0,32.2,13.1,0002.0,0021.55,0016.95,0016.17
2022-09-06 12:39:00,,0830.1,5.01,0.00,30.4,29.3,00.0,39.0,32.2,13.3,0002.3,0021.47,0016.95,0016.15
2022-09-06 12:40:00,,0830.2,4.98,0.00,30.4,29.4,00.0,39.1,32.3,13.7,0002.4,0021.39,0016.83,0016.01
2022-09-06 12:41:00,,0830.2,5.01,0.00,30.4,29.2,00.0,39.1,32.2,14.3,0002.5,0021.05,0016.54,0015.73
2022-09-06 12:42:00,,0830.1,5.01,0.00,30.4,27.8,00.0,39.1,32.1,15.0,0002.8,0020.33,0015.85,0015.09
2022-09-06 12:43:00,,0830.2,5.00,0.00,30.3,27.2,00.0,39.0,32.1,14.4,0002.9,0019.94,0015.17,0014.42
2022-09-06 12:44:00,,0830.2,4.99,0.00,30.3,27.3,00.0,39.0,32.0,13.3,0003.0,0019.88,0014.92,0014.13
2022-09-06 12:45:00,,0830.2,5.00,0.00,30.2,27.6,00.0,39.0,31.8,13.1,0003.4,0020.32,0014.89,0014.07
2022-09-06 12:46:00,,0830.2,5.01,0.00,30.2,27.9,00.0,38.9,31.8,13.3,0003.2,0020.77,0014.78,0013.91
2022-09-06 12:47:00,,0830.2,4.99,0.00,30.1,28.2,00.0,38.9,31.9,13.0,0003.8,0020.47,0014.56,0013.70
2022-09-06 12:48:00,,0830.2,5.00,0.00,30.1,28.4,00.0,38.9,31.9,12.8,0004.3,0020.10,0014.51,0013.64
2022-09-06 12:49:00,,0830.2,5.01,0.00,30.1,28.5,00.0,38.9,31.9,12.9,0004.3,0020.40,0014.51,0013.62
2022-09-06 12:50:00,,0830.2,4.98,0.00,30.1,28.6,00.0,38.9,31.9,12.8,0004.5,0020.59,0014.55,0013.71
2022-09-06 12:51:00,,0830.3,5.00,0.00,30.1,28.8,00.0,38.9,31.9,13.1,0004.7,0020.63,0014.71,0013.90
2022-09-06 12:52:00,,0830.3,5.01,0.00,30.1,28.9,00.0,38.9,32.0,13.5,0004.5,0021.01,0014.95,0014.13
2022-09-06 12:53:00,,0830.4,4.99,0.00,30.2,28.9,00.0,38.9,32.0,14.2,0004.1,0021.47,0015.34,0014.46
2022-09-06 12:54:00,,0830.4,5.01,0.00,30.2,29.0,00.0,38.9,32.0,13.8,0004.0,0021.63,0015.62,0014.70
2022-09-06 12:55:00,,0830.4,5.01,0.00,30.2,29.0,00.0,39.0,32.0,13.8,0003.8,0022.26,0015.62,0014.67
2022-09-06 12:56:00,,0830.5,4.98,0.00,30.2,29.1,00.0,39.0,32.1,14.0,0003.7,0021.94,0015.35,0014.37
2022-09-06 12:57:00,,0830.4,5.01,0.00,30.2,29.1,00.0,39.0,32.1,14.2,0004.1,0021.69,0015.14,0014.17
2022-09-06 12:58:00,,0830.4,5.00,0.00,30.3,29.2,00.0,39.0,32.1,14.3,0004.0,0021.32,0014.82,0013.82
2022-09-06 12:59:00,,0830.4,4.99,0.00,30.3,29.2,00.0,39.0,32.1,14.2,0003.5,0020.56,0014.36,0013.38
